LiveATC.Net - Listen to live air traffic control over the Internet!


ICAO: VMMC  IATA: MFM   Airport: Macau International Airport
City: Taipa
Country: Macau   Continent: Asia
VMMC METAR Weather: VMMC 060630Z 21008KT 180V240 9999 FEW020 29/24 Q1004 NOSIG
VMMC Flight Activity (FlightAware)

VMMC Tower
Feed Status: UP   Listeners: 4
Listen in your browser - HTML5 player (in browser, HTML5)
Click here to listen with your own player (launches your MP3 player)
Archive Access: VMMC Tower
FacilityFrequency
Macau Tower118.000

NOTICE

Unauthorized use prohibited. See LiveATC.net Terms of Service


Airport/ARTCC Code
Frequency Search
(e.g., 124.400, 128.75)
Site-wide search
 


Browse Feeds
Top 50 Feeds
HF Oceanic Feeds
Coverage Map
Bad Weather Areas

LiveATC FAQ
Offer LiveATC feed
Contact LiveATC.net
Press Inquiries

LiveATC on iPhone
LiveATC on Android

LiveATC Mobile
(Mobile browser)

ATC Audio Archives
Interesting Recordings

LiveATC Forums


Home Page
About LiveATC.net


Terms of Use
Privacy Policy

AIRMETs/SIGMETs

FAA Airport Status
NAS Status
Arrival Demand


Server Software By:
Icecast.org
Liquidsoap